Total_Precipitation_Accumulation
0.01 0.02 0.04 0.05 0.15 0.17 0.20 0.29 0.27 0.28 0.27 0.28 0.28 0.37 0.24 0.32 0.52 0.56 0.41 0.51 0.51 0.53 0.70 0.53 0.35 0.37 0.34 0.42 0.51 0.49 0.43 0.39 0.22 0.12 0.07 0.08 0.09 0.13 0.15 0.13 0.07 0.04 0.04
0.00 0.01 0.02 0.06 0.08 0.12 0.21 0.29 0.27 0.25 0.39 0.51 0.41 0.42 0.40 0.37 0.48 0.82 0.79 0.61 0.52 0.67 0.88 0.85 0.53 0.49 0.46 0.46 0.49 0.44 0.39 0.41 0.48 0.34 0.23 0.18 0.15 0.12 0.15 0.19 0.19 0.18 0.09
0.01 0.01 0.03 0.06 0.10 0.11 0.13 0.19 0.22 0.22 0.27 0.51 0.58 0.61 0.66 0.48 0.38 0.34 0.60 0.77 0.54 0.50 0.68 0.87 0.74 0.59 0.52 0.59 0.57 0.40 0.33 0.34 0.43 0.48 0.37 0.30 0.30 0.25 0.27 0.37 0.31 0.14 0.07
0.22 0.15 0.09 0.12 0.13 0.18 0.20 0.27 0.29 0.29 0.16 0.24 0.45 0.55 0.81 0.84 0.78 0.61 0.56 0.48 0.63 0.50 0.45 0.44 0.57 0.63 0.41 0.37 0.39 0.46 0.50 0.43 0.31 0.37 0.39 0.35 0.27 0.28 0.50 0.40 0.21 0.15 0.12
0.10 0.25 0.26 0.24 0.34 0.49 0.75 0.83 0.52 0.50 0.36 0.28 0.24 0.29 0.59 0.95 0.60 0.46 0.34 0.54 0.56 0.59 0.56 0.56 0.43 0.57 0.53 0.39 0.39 0.29 0.33 0.46 0.49 0.38 0.40 0.43 0.43 0.40 0.40 0.33 0.28 0.24 0.27
0.03 0.05 0.10 0.09 0.11 0.19 0.32 0.53 0.51 0.56 0.70 0.49 0.55 0.37 0.27 0.49 0.72 0.48 0.48 0.39 0.56 0.65 0.58 0.44 0.65 0.81 0.42 0.32 0.38 0.47 0.51 0.48 0.47 0.53 0.47 0.38 0.29 0.27 0.24 0.22 0.23 0.32 0.41
0.04 0.04 0.05 0.15 0.20 0.21 0.18 0.18 0.31 0.38 0.49 0.78 0.60 0.49 0.40 0.35 0.69 0.52 0.61 0.74 0.60 0.46 0.57 0.55 0.37 0.59 0.71 0.56 0.47 0.51 0.69 0.78 0.65 0.57 0.56 0.57 0.50 0.45 0.38 0.27 0.22 0.19 0.20
0.06 0.08 0.08 0.13 0.22 0.26 0.27 0.20 0.18 0.30 0.48 0.69 0.67 0.59 0.44 0.45 0.46 0.73 0.76 0.77 0.72 0.54 0.50 0.55 0.56 0.52 0.67 0.57 0.48 0.52 0.56 0.73 0.93 0.95 0.82 0.66 0.69 0.71 0.49 0.48 0.57 0.59 0.55
0.05 0.10 0.14 0.15 0.15 0.12 0.13 0.13 0.15 0.13 0.25 0.65 0.83 0.64 0.60 0.59 0.71 0.72 0.75 0.69 0.89 0.77 0.57 0.57 0.49 0.53 0.64 0.77 0.67 0.76 0.69 0.69 0.96 1.07 1.12 1.14 1.13 1.34 1.04 0.86 1.03 0.89 0.88
0.04 0.09 0.11 0.08 0.11 0.12 0.15 0.18 0.22 0.26 0.32 0.36 0.62 0.80 0.86 0.81 0.87 0.83 0.88 0.74 0.62 0.77 0.70 0.62 0.76 0.73 0.68 0.64 0.63 0.65 0.84 0.85 0.83 0.95 0.92 0.91 1.07 1.34 1.43 1.13 1.06 0.98 0.81
0.01 0.00 0.00 0.00 0.01 0.03 0.04 0.10 0.20 0.31 0.42 0.47 0.56 0.70 0.73 0.85 0.95 1.02 0.91 0.84 0.88 0.67 0.63 0.71 0.72 0.76 0.82 0.86 0.80 0.77 0.92 0.91 0.88 0.77 0.87 0.92 0.89 0.85 0.99 1.15 1.23 1.17 1.01
0.00 0.00 0.00 0.00 0.00 0.00 0.00 0.01 0.06 0.14 0.23 0.40 0.53 0.67 0.80 0.85 0.91 0.93 0.99 1.00 0.92 0.82 0.82 0.68 0.73 0.68 0.63 0.69 0.77 0.87 0.77 0.66 0.61 0.69 0.73 0.75 0.80 0.86 0.85 0.85 0.86 0.94 1.03
0.00 0.00 0.00 0.00 0.00 0.00 0.00 0.00 0.00 0.02 0.06 0.14 0.23 0.37 0.52 0.64 0.72 0.79 0.84 0.83 0.80 0.78 0.86 0.91 0.79 0.61 0.55 0.58 0.63 0.63 0.58 0.51 0.53 0.58 0.65 0.75 0.80 0.87 0.85 0.76 0.73 0.73 0.75
0.00 0.00 0.00 0.00 0.00 0.00 0.00 0.00 0.00 0.00 0.01 0.02 0.04 0.09 0.14 0.19 0.25 0.33 0.41 0.49 0.55 0.57 0.59 0.62 0.63 0.63 0.65 0.68 0.64 0.58 0.54 0.59 0.62 0.65 0.69 0.71 0.69 0.69 0.72 0.78 0.76 0.77 0.76
0.00 0.00 0.00 0.00 0.00 0.00 0.01 0.02 0.01 0.01 0.01 0.02 0.04 0.02 0.02 0.05 0.08 0.09 0.12 0.14 0.18 0.23 0.28 0.30 0.30 0.32 0.35 0.41 0.46 0.53 0.57 0.59 0.56 0.60 0.62 0.65 0.66 0.62 0.65 0.69 0.72 0.68 0.68
0.00 0.00 0.00 0.00 0.00 0.00 0.00 0.01 0.01 0.00 0.00 0.00 0.01 0.01 0.01 0.01 0.00 0.00 0.01 0.02 0.03 0.04 0.06 0.08 0.12 0.14 0.17 0.20 0.23 0.27 0.29 0.34 0.40 0.41 0.42 0.41 0.44 0.51 0.57 0.61 0.65 0.70 0.73
0.00 0.00 0.00 0.00 0.00 0.00 0.00 0.00 0.01 0.01 0.00 0.00 0.00 0.00 0.01 0.00 0.00 0.00 0.00 0.00 0.00 0.00 0.00 0.01 0.03 0.04 0.05 0.06 0.08 0.09 0.12 0.15 0.16 0.17 0.22 0.25 0.27 0.29 0.32 0.37 0.44 0.50 0.57
0.00 0.00 0.01 0.00 0.00 0.00 0.00 0.00 0.00 0.01 0.01 0.00 0.00 0.00 0.00 0.00 0.00 0.00 0.00 0.00 0.00 0.00 0.00 0.00 0.01 0.01 0.01 0.01 0.01 0.02 0.03 0.03 0.04 0.05 0.07 0.09 0.10 0.14 0.16 0.19 0.23 0.29 0.33
0.00 0.00 0.01 0.01 0.00 0.00 0.00 0.00 0.00 0.00 0.00 0.01 0.00 0.00 0.00 0.00 0.00 0.00 0.00 0.00 0.00 0.01 0.01 0.00 0.00 0.00 0.00 0.00 0.01 0.00 0.00 0.01 0.01 0.01 0.01 0.02 0.02 0.03 0.06 0.08 0.12 0.15 0.18
0.00 0.00 0.00 0.00 0.00 0.00 0.00 0.00 0.00 0.00 0.00 0.01 0.01 0.01 0.00 0.00 0.00 0.00 0.00 0.00 0.00 0.01 0.01 0.01 0.00 0.00 0.00 0.00 0.01 0.00 0.00 0.00 0.00 0.00 0.01 0.01 0.01 0.01 0.01 0.02 0.04 0.06 0.09
0.00 0.00 0.00 0.00 0.00 0.00 0.00 0.00 0.00 0.00 0.00 0.00 0.02 0.01 0.00 0.00 0.01 0.01 0.00 0.01 0.01 0.01 0.01 0.02 0.01 0.01 0.01 0.00 0.00 0.00 0.00 0.00 0.00 0.00 0.01 0.01 0.01 0.01 0.00 0.00 0.00 0.00 0.01
0.00 0.00 0.00 0.00 0.00 0.00 0.00 0.00 0.00 0.00 0.00 0.01 0.01 0.01 0.00 0.01 0.01 0.01 0.00 0.01 0.02 0.01 0.01 0.02 0.02 0.01 0.01 0.01 0.01 0.01 0.01 0.01 0.01 0.01 0.01 0.00 0.01 0.01 0.00 0.00 0.00 0.00 0.00
0.00 0.00 0.00 0.00 0.00 0.00 0.00 0.00 0.01 0.01 0.01 0.01 0.02 0.02 0.02 0.02 0.02 0.02 0.02 0.02 0.01 0.02 0.01 0.01 0.01 0.01 0.01 0.02 0.01 0.01 0.01 0.01 0.01 0.02 0.02 0.01 0.01 0.01 0.01 0.01 0.00 0.00 0.00
0.00 0.00 0.00 0.00 0.00 0.00 0.01 0.01 0.01 0.01 0.01 0.02 0.03 0.03 0.03 0.03 0.03 0.03 0.03 0.01 0.01 0.01 0.01 0.01 0.01 0.00 0.00 0.01 0.01 0.01 0.01 0.01 0.01 0.01 0.01 0.01 0.01 0.01 0.01 0.00 0.00 0.00 0.00
0.00 0.00 0.00 0.00 0.01 0.01 0.01 0.01 0.01 0.01 0.02 0.02 0.03 0.03 0.03 0.03 0.03 0.03 0.05 0.03 0.01 0.01 0.01 0.01 0.01 0.01 0.00 0.00 0.00 0.00 0.00 0.00 0.01 0.00 0.00 0.01 0.01 0.01 0.00 0.00 0.00 0.00 0.00
0.01 0.00 0.01 0.01 0.01 0.01 0.01 0.02 0.02 0.01 0.02 0.02 0.02 0.04 0.04 0.03 0.03 0.03 0.04 0.04 0.02 0.01 0.01 0.01 0.00 0.00 0.00 0.01 0.00 0.00 0.00 0.00 0.00 0.00 0.00 0.00 0.00 0.00 0.00 0.00 0.00 0.00 0.00